Year,Month,Day,Hour,Minute,Value (Times are PST for windspeed in km/hr)
2017,09,28,00,00,1.50
2017,09,28,00,01,1.10
2017,09,28,00,02,3.30
2017,09,28,00,03,3.20
2017,09,28,00,04,3.20
2017,09,28,00,05,3.40
2017,09,28,00,06,3.80
2017,09,28,00,07,4.80
2017,09,28,00,08,5.20
2017,09,28,00,09,5.10
2017,09,28,00,10,5.10
2017,09,28,00,11,4.70
2017,09,28,00,12,4.80
2017,09,28,00,13,4.70
2017,09,28,00,14,5.00
2017,09,28,00,15,5.50
2017,09,28,00,16,5.10
2017,09,28,00,17,5.10
2017,09,28,00,18,4.30
2017,09,28,00,19,4.70
2017,09,28,00,20,5.60
2017,09,28,00,21,4.60
2017,09,28,00,22,4.70
2017,09,28,00,23,4.70
2017,09,28,00,24,4.70
2017,09,28,00,25,4.90
2017,09,28,00,26,5.70
2017,09,28,00,27,4.80
2017,09,28,00,28,6.10
2017,09,28,00,29,4.50
2017,09,28,00,30,5.30
2017,09,28,00,31,4.30
2017,09,28,00,32,3.40
2017,09,28,00,33,4.30
2017,09,28,00,34,5.10
2017,09,28,00,35,3.40
2017,09,28,00,36,3.50
2017,09,28,00,37,2.50
2017,09,28,00,38,4.80
2017,09,28,00,39,4.00
2017,09,28,00,40,4.40
2017,09,28,00,41,2.60
2017,09,28,00,42,4.70
2017,09,28,00,43,5.40
2017,09,28,00,44,4.60
2017,09,28,00,45,4.10
2017,09,28,00,46,4.60
2017,09,28,00,47,2.00
2017,09,28,00,48,1.40
2017,09,28,00,49,3.90
2017,09,28,00,50,5.60
2017,09,28,00,51,3.60
2017,09,28,00,52,3.10
2017,09,28,00,53,2.40
2017,09,28,00,54,3.10
2017,09,28,00,55,6.60
2017,09,28,00,56,7.10
2017,09,28,00,57,5.40
2017,09,28,00,58,4.30
2017,09,28,00,59,0.90
2017,09,28,01,00,1.70
2017,09,28,01,01,1.90
2017,09,28,01,02,3.90
2017,09,28,01,03,4.60
2017,09,28,01,04,2.30
2017,09,28,01,05,3.10
2017,09,28,01,06,0.80
2017,09,28,01,07,1.50
2017,09,28,01,08,1.60
2017,09,28,01,09,0.20
2017,09,28,01,10,1.90
2017,09,28,01,11,3.00
2017,09,28,01,12,3.20
2017,09,28,01,13,4.20
2017,09,28,01,14,2.00
2017,09,28,01,15,2.30
2017,09,28,01,16,6.50
2017,09,28,01,17,4.00
2017,09,28,01,18,4.60
2017,09,28,01,19,2.50
2017,09,28,01,20,2.10
2017,09,28,01,21,5.00
2017,09,28,01,22,4.70
2017,09,28,01,23,3.20
2017,09,28,01,24,4.60
2017,09,28,01,25,4.70
2017,09,28,01,26,3.50
2017,09,28,01,27,2.70
2017,09,28,01,28,2.00
2017,09,28,01,29,4.20
2017,09,28,01,30,1.20
2017,09,28,01,31,3.60
2017,09,28,01,32,2.60
2017,09,28,01,33,3.50
2017,09,28,01,34,4.40
2017,09,28,01,35,2.90
2017,09,28,01,36,6.00
2017,09,28,01,37,2.70
2017,09,28,01,38,5.70
2017,09,28,01,39,5.10
2017,09,28,01,40,5.40
2017,09,28,01,41,6.40
2017,09,28,01,42,2.30
2017,09,28,01,43,6.60
2017,09,28,01,44,6.90
2017,09,28,01,45,5.40
2017,09,28,01,46,2.60
2017,09,28,01,47,7.00
2017,09,28,01,48,7.20
2017,09,28,01,49,6.40
2017,09,28,01,50,7.00
2017,09,28,01,51,4.30
2017,09,28,01,52,3.50
2017,09,28,01,53,4.60
2017,09,28,01,54,7.50
2017,09,28,01,55,5.00
2017,09,28,01,56,3.40
2017,09,28,01,57,3.90
2017,09,28,01,58,5.70
2017,09,28,01,59,0.80
2017,09,28,02,00,2.10
2017,09,28,02,01,4.60
2017,09,28,02,02,1.20
2017,09,28,02,03,3.30
2017,09,28,02,04,0.50
2017,09,28,02,05,0.30
2017,09,28,02,06,0.50
2017,09,28,02,07,3.20
2017,09,28,02,08,1.50
2017,09,28,02,09,1.20
2017,09,28,02,10,0.50
2017,09,28,02,11,0.00
2017,09,28,02,12,1.10
2017,09,28,02,13,3.40
2017,09,28,02,14,1.00
2017,09,28,02,15,0.20
2017,09,28,02,16,0.20
2017,09,28,02,17,5.90
2017,09,28,02,18,2.20
2017,09,28,02,19,3.40
2017,09,28,02,20,6.40
2017,09,28,02,21,5.40
2017,09,28,02,22,4.80
2017,09,28,02,23,4.10
2017,09,28,02,24,3.70
2017,09,28,02,25,3.00
2017,09,28,02,26,4.10
2017,09,28,02,27,3.90
2017,09,28,02,28,5.60
2017,09,28,02,29,1.70
2017,09,28,02,30,1.90
2017,09,28,02,31,1.40
2017,09,28,02,32,1.00
2017,09,28,02,33,1.20
2017,09,28,02,34,1.80
2017,09,28,02,35,1.00
2017,09,28,02,36,2.70
2017,09,28,02,37,2.30
2017,09,28,02,38,5.30
2017,09,28,02,39,3.00
2017,09,28,02,40,1.00
2017,09,28,02,41,0.50
2017,09,28,02,42,0.40
2017,09,28,02,43,1.20
2017,09,28,02,44,1.80
2017,09,28,02,45,3.20
2017,09,28,02,46,2.00
2017,09,28,02,47,7.50
2017,09,28,02,48,5.70
2017,09,28,02,49,6.00
2017,09,28,02,50,4.10
2017,09,28,02,51,3.80
2017,09,28,02,52,5.90
2017,09,28,02,53,7.10
2017,09,28,02,54,3.60
2017,09,28,02,55,4.60
2017,09,28,02,56,1.30
2017,09,28,02,57,1.80
2017,09,28,02,58,1.40
2017,09,28,02,59,1.30
2017,09,28,03,00,2.80
2017,09,28,03,01,2.60
2017,09,28,03,02,2.80
2017,09,28,03,03,1.50
2017,09,28,03,04,2.70
2017,09,28,03,05,3.20
2017,09,28,03,06,2.40
2017,09,28,03,07,2.50
2017,09,28,03,08,3.40
2017,09,28,03,09,4.70
2017,09,28,03,10,7.40
2017,09,28,03,11,5.50
2017,09,28,03,12,7.60
2017,09,28,03,13,5.40
2017,09,28,03,14,4.40
2017,09,28,03,15,2.60
2017,09,28,03,16,4.20
2017,09,28,03,17,4.60
2017,09,28,03,18,3.90
2017,09,28,03,19,2.20
2017,09,28,03,20,3.50
2017,09,28,03,21,2.80
2017,09,28,03,22,2.60
2017,09,28,03,23,2.90
2017,09,28,03,24,2.30
2017,09,28,03,25,2.80
2017,09,28,03,26,4.90
2017,09,28,03,27,5.60
2017,09,28,03,28,4.50
2017,09,28,03,29,3.40
2017,09,28,03,30,3.90
2017,09,28,03,31,4.20
2017,09,28,03,32,4.00
2017,09,28,03,33,5.60
2017,09,28,03,34,4.90
2017,09,28,03,35,3.90
2017,09,28,03,36,4.80
2017,09,28,03,37,3.00
2017,09,28,03,38,3.60
2017,09,28,03,39,6.00
2017,09,28,03,40,4.70
2017,09,28,03,41,4.20
2017,09,28,03,42,4.30
2017,09,28,03,43,2.00
2017,09,28,03,44,2.20
2017,09,28,03,45,4.40
2017,09,28,03,46,3.50
2017,09,28,03,47,2.80
2017,09,28,03,48,5.30
2017,09,28,03,49,4.30
2017,09,28,03,50,3.30
2017,09,28,03,51,4.00
2017,09,28,03,52,5.30
2017,09,28,03,53,4.20
2017,09,28,03,54,3.60
2017,09,28,03,55,5.10
2017,09,28,03,56,3.70
2017,09,28,03,57,3.60
2017,09,28,03,58,2.40
2017,09,28,03,59,1.50
2017,09,28,04,00,5.30
2017,09,28,04,01,3.90
2017,09,28,04,02,2.60
2017,09,28,04,03,3.20
2017,09,28,04,04,3.90
2017,09,28,04,05,3.70
2017,09,28,04,06,3.20
2017,09,28,04,07,4.30
2017,09,28,04,08,5.60
2017,09,28,04,09,6.00
2017,09,28,04,10,3.60
2017,09,28,04,11,4.50
2017,09,28,04,12,4.80
2017,09,28,04,13,7.20
2017,09,28,04,14,6.40
2017,09,28,04,15,7.90
2017,09,28,04,16,10.40
2017,09,28,04,17,7.20
2017,09,28,04,18,7.40
2017,09,28,04,19,8.40
2017,09,28,04,20,8.60
2017,09,28,04,21,6.70
2017,09,28,04,22,5.80
2017,09,28,04,23,7.20
2017,09,28,04,24,6.20
2017,09,28,04,25,5.30
2017,09,28,04,26,2.70
2017,09,28,04,27,3.40
2017,09,28,04,28,4.30
2017,09,28,04,29,5.70
2017,09,28,04,30,5.70
2017,09,28,04,31,3.50
2017,09,28,04,32,3.90
2017,09,28,04,33,4.50
2017,09,28,04,34,2.80
2017,09,28,04,35,8.30
2017,09,28,04,36,4.70
2017,09,28,04,37,3.30
2017,09,28,04,38,2.40
2017,09,28,04,39,4.30
2017,09,28,04,40,3.90
2017,09,28,04,41,5.80
2017,09,28,04,42,4.50
2017,09,28,04,43,3.60
2017,09,28,04,44,3.70
2017,09,28,04,45,2.20
2017,09,28,04,46,3.40
2017,09,28,04,47,4.30
2017,09,28,04,48,4.30
2017,09,28,04,49,4.30
2017,09,28,04,50,4.70
2017,09,28,04,51,2.30
2017,09,28,04,52,3.20
2017,09,28,04,53,2.50
2017,09,28,04,54,3.50
2017,09,28,04,55,6.30
2017,09,28,04,56,6.70
2017,09,28,04,57,3.60
2017,09,28,04,58,6.90
2017,09,28,04,59,6.40
2017,09,28,05,00,3.80
2017,09,28,05,01,2.00
2017,09,28,05,02,2.20
2017,09,28,05,03,3.00
2017,09,28,05,04,0.40
2017,09,28,05,05,3.90
2017,09,28,05,06,3.10
2017,09,28,05,07,0.40
2017,09,28,05,08,0.10
2017,09,28,05,09,1.50
2017,09,28,05,10,1.10
2017,09,28,05,11,0.90
2017,09,28,05,12,1.40
2017,09,28,05,13,0.00
2017,09,28,05,14,0.20
2017,09,28,05,15,0.20
2017,09,28,05,16,1.70
2017,09,28,05,17,2.70
2017,09,28,05,18,1.80
2017,09,28,05,19,1.80
2017,09,28,05,20,0.40
2017,09,28,05,21,3.40
2017,09,28,05,22,1.20
2017,09,28,05,23,1.80
2017,09,28,05,24,3.10
2017,09,28,05,25,6.00
2017,09,28,05,26,5.40
2017,09,28,05,27,6.00
2017,09,28,05,28,5.20
2017,09,28,05,29,2.70
2017,09,28,05,30,2.50
2017,09,28,05,31,3.40
2017,09,28,05,32,5.10
2017,09,28,05,33,3.10
2017,09,28,05,34,2.80
2017,09,28,05,35,4.30
2017,09,28,05,36,5.80
2017,09,28,05,37,4.40
2017,09,28,05,38,3.20
2017,09,28,05,39,3.50
2017,09,28,05,40,5.10
2017,09,28,05,41,5.20
2017,09,28,05,42,5.40
2017,09,28,05,43,2.50
2017,09,28,05,44,2.50
2017,09,28,05,45,6.00
2017,09,28,05,46,7.70
2017,09,28,05,47,4.20
2017,09,28,05,48,4.00
2017,09,28,05,49,5.30
2017,09,28,05,50,7.80
2017,09,28,05,51,7.00
2017,09,28,05,52,5.00
2017,09,28,05,53,5.80
2017,09,28,05,54,2.80
2017,09,28,05,55,3.20
2017,09,28,05,56,3.50
2017,09,28,05,57,3.10
2017,09,28,05,58,7.20
2017,09,28,05,59,6.60
2017,09,28,06,00,6.50
2017,09,28,06,01,3.10
2017,09,28,06,02,5.40
2017,09,28,06,03,4.30
2017,09,28,06,04,5.00
2017,09,28,06,05,6.10
2017,09,28,06,06,6.80
2017,09,28,06,07,4.90
2017,09,28,06,08,4.90
2017,09,28,06,09,6.90
2017,09,28,06,10,5.10
2017,09,28,06,11,3.90
2017,09,28,06,12,6.50
2017,09,28,06,13,8.50
2017,09,28,06,14,8.90
2017,09,28,06,15,7.10
2017,09,28,06,16,4.40
2017,09,28,06,17,3.70
2017,09,28,06,18,2.90
2017,09,28,06,19,3.90
2017,09,28,06,20,2.10
2017,09,28,06,21,2.00
2017,09,28,06,22,2.80
2017,09,28,06,23,3.60
2017,09,28,06,24,4.40
2017,09,28,06,25,3.90
2017,09,28,06,26,7.90
2017,09,28,06,27,5.20
2017,09,28,06,28,2.90
2017,09,28,06,29,6.10
2017,09,28,06,30,7.10
2017,09,28,06,31,4.00
2017,09,28,06,32,3.00
2017,09,28,06,33,9.20
2017,09,28,06,34,4.40
2017,09,28,06,35,6.60
2017,09,28,06,36,6.80
2017,09,28,06,37,5.30
2017,09,28,06,38,3.70
2017,09,28,06,39,5.10
2017,09,28,06,40,6.60
2017,09,28,06,41,3.80
2017,09,28,06,42,8.80
2017,09,28,06,43,4.40
2017,09,28,06,44,3.30
2017,09,28,06,45,4.20
2017,09,28,06,46,2.30
2017,09,28,06,47,1.80
2017,09,28,06,48,4.70
2017,09,28,06,49,4.70
2017,09,28,06,50,3.70
2017,09,28,06,51,5.10
2017,09,28,06,52,2.20
2017,09,28,06,53,2.00
2017,09,28,06,54,5.50
2017,09,28,06,55,3.30
2017,09,28,06,56,7.00
2017,09,28,06,57,3.60
2017,09,28,06,58,4.70
2017,09,28,06,59,6.60
2017,09,28,07,00,4.70
2017,09,28,07,01,6.20
2017,09,28,07,02,4.50
2017,09,28,07,03,6.90
2017,09,28,07,04,5.10
2017,09,28,07,05,6.30
2017,09,28,07,06,5.40
2017,09,28,07,07,10.80
2017,09,28,07,08,5.20
2017,09,28,07,09,7.30
2017,09,28,07,10,7.30
2017,09,28,07,11,8.70
2017,09,28,07,12,7.00
2017,09,28,07,13,4.50
2017,09,28,07,14,6.00
2017,09,28,07,15,3.90
2017,09,28,07,16,5.00
2017,09,28,07,17,1.50
2017,09,28,07,18,3.50
2017,09,28,07,19,5.10
2017,09,28,07,20,6.60
2017,09,28,07,21,5.20
2017,09,28,07,22,6.80
2017,09,28,07,23,6.60
2017,09,28,07,24,7.60
2017,09,28,07,25,9.70
2017,09,28,07,26,11.70
2017,09,28,07,27,9.20
2017,09,28,07,28,6.30
2017,09,28,07,29,8.70
2017,09,28,07,30,7.80
2017,09,28,07,31,11.50
2017,09,28,07,32,10.00
2017,09,28,07,33,8.50
2017,09,28,07,34,5.80
2017,09,28,07,35,7.20
2017,09,28,07,36,7.60
2017,09,28,07,37,3.30
2017,09,28,07,38,4.60
2017,09,28,07,39,6.60
2017,09,28,07,40,4.40
2017,09,28,07,41,4.30
2017,09,28,07,42,2.40
2017,09,28,07,43,0.70
2017,09,28,07,44,1.80
2017,09,28,07,45,1.50
2017,09,28,07,46,0.90
2017,09,28,07,47,1.20
2017,09,28,07,48,2.10
2017,09,28,07,49,3.90
2017,09,28,07,50,6.90
2017,09,28,07,51,2.80
2017,09,28,07,52,4.00
2017,09,28,07,53,4.70
2017,09,28,07,54,1.70
2017,09,28,07,55,2.40
2017,09,28,07,56,3.50
2017,09,28,07,57,2.10
2017,09,28,07,58,2.20
2017,09,28,07,59,2.30
2017,09,28,08,00,1.40
2017,09,28,08,01,3.10
2017,09,28,08,02,4.70
2017,09,28,08,03,0.70
2017,09,28,08,04,2.40
2017,09,28,08,05,3.10
2017,09,28,08,06,3.00
2017,09,28,08,07,4.00
2017,09,28,08,08,3.60
2017,09,28,08,09,3.10
2017,09,28,08,10,5.10
2017,09,28,08,11,7.40
2017,09,28,08,12,6.20
2017,09,28,08,13,4.30
2017,09,28,08,14,3.50
2017,09,28,08,15,1.90
2017,09,28,08,16,3.30
2017,09,28,08,17,2.40
2017,09,28,08,18,0.20
2017,09,28,08,19,2.60
2017,09,28,08,20,5.00
2017,09,28,08,21,1.50
2017,09,28,08,22,4.00
2017,09,28,08,23,2.00
2017,09,28,08,24,2.50
2017,09,28,08,25,3.20
2017,09,28,08,26,5.30
2017,09,28,08,27,8.90
2017,09,28,08,28,6.70
2017,09,28,08,29,8.40
2017,09,28,08,30,8.30
2017,09,28,08,31,9.60
2017,09,28,08,32,11.30
2017,09,28,08,33,8.50
2017,09,28,08,34,6.40
2017,09,28,08,35,6.30
2017,09,28,08,36,7.80
2017,09,28,08,37,4.70
2017,09,28,08,38,4.30
2017,09,28,08,39,6.20
2017,09,28,08,40,6.10
2017,09,28,08,41,3.90
2017,09,28,08,42,4.80
2017,09,28,08,43,1.90
2017,09,28,08,44,0.90
2017,09,28,08,45,5.20
2017,09,28,08,46,5.70
2017,09,28,08,47,5.00
2017,09,28,08,48,3.10
2017,09,28,08,49,5.20
2017,09,28,08,50,5.60
2017,09,28,08,51,8.90
2017,09,28,08,52,8.30
2017,09,28,08,53,8.50
2017,09,28,08,54,5.70
2017,09,28,08,55,7.50
2017,09,28,08,56,10.70
2017,09,28,08,57,5.20
2017,09,28,08,58,5.20
2017,09,28,08,59,5.30
2017,09,28,09,00,5.10
2017,09,28,09,01,3.50
2017,09,28,09,02,7.30
2017,09,28,09,03,6.20
2017,09,28,09,04,9.20
2017,09,28,09,05,6.00
2017,09,28,09,06,8.40
2017,09,28,09,07,7.50
2017,09,28,09,08,8.50
2017,09,28,09,09,6.10
2017,09,28,09,10,6.80
2017,09,28,09,11,6.30
2017,09,28,09,12,3.90
2017,09,28,09,13,6.90
2017,09,28,09,14,9.20
2017,09,28,09,15,6.90
2017,09,28,09,16,7.70
2017,09,28,09,17,10.90
2017,09,28,09,18,6.10
2017,09,28,09,19,5.70
2017,09,28,09,20,2.00
2017,09,28,09,21,0.40
2017,09,28,09,22,0.60
2017,09,28,09,23,4.00
2017,09,28,09,24,7.40
2017,09,28,09,25,11.50
2017,09,28,09,26,8.70
2017,09,28,09,27,10.50
2017,09,28,09,28,10.00
2017,09,28,09,29,8.80
2017,09,28,09,30,10.00
2017,09,28,09,31,5.70
2017,09,28,09,32,6.90
2017,09,28,09,33,11.70
2017,09,28,09,34,13.30
2017,09,28,09,35,8.00
2017,09,28,09,36,7.90
2017,09,28,09,37,13.20
2017,09,28,09,38,6.60
2017,09,28,09,39,8.70
2017,09,28,09,40,10.80
2017,09,28,09,41,8.40
2017,09,28,09,42,4.10
2017,09,28,09,43,3.20
2017,09,28,09,44,1.30
2017,09,28,09,45,2.60
2017,09,28,09,46,5.10
2017,09,28,09,47,4.40
2017,09,28,09,48,5.30
2017,09,28,09,49,5.10
2017,09,28,09,50,4.60
2017,09,28,09,51,6.20
2017,09,28,09,52,9.30
2017,09,28,09,53,7.10
2017,09,28,09,54,9.20
2017,09,28,09,55,5.80
2017,09,28,09,56,6.30
2017,09,28,09,57,6.40
2017,09,28,09,58,2.80
2017,09,28,09,59,5.40
2017,09,28,10,00,3.70
2017,09,28,10,01,8.00
2017,09,28,10,02,6.80
2017,09,28,10,03,8.90
2017,09,28,10,04,7.70
2017,09,28,10,05,3.80
2017,09,28,10,06,6.70
2017,09,28,10,07,6.90
2017,09,28,10,08,9.70
2017,09,28,10,09,6.00
2017,09,28,10,10,4.00
2017,09,28,10,11,0.50
2017,09,28,10,12,5.60
2017,09,28,10,13,8.70
2017,09,28,10,14,6.10
2017,09,28,10,15,4.10
2017,09,28,10,16,2.90
2017,09,28,10,17,5.20
2017,09,28,10,18,8.20
2017,09,28,10,19,10.80
2017,09,28,10,20,10.30
2017,09,28,10,21,11.50
2017,09,28,10,22,5.80
2017,09,28,10,23,4.30
2017,09,28,10,24,6.40
2017,09,28,10,25,9.10
2017,09,28,10,26,4.70
2017,09,28,10,27,6.40
2017,09,28,10,28,11.00
2017,09,28,10,29,7.30
2017,09,28,10,30,15.00
2017,09,28,10,31,7.40
2017,09,28,10,32,7.60
2017,09,28,10,33,3.60
2017,09,28,10,34,4.70
2017,09,28,10,35,8.30
2017,09,28,10,36,11.30
2017,09,28,10,37,12.70
2017,09,28,10,38,12.30
2017,09,28,10,39,9.90
2017,09,28,10,40,3.80
2017,09,28,10,41,12.30
2017,09,28,10,42,10.50
2017,09,28,10,43,5.20
2017,09,28,10,44,6.90
2017,09,28,10,45,6.40
2017,09,28,10,46,7.40
2017,09,28,10,47,7.40
2017,09,28,10,48,8.70
2017,09,28,10,49,8.90
2017,09,28,10,50,11.90
2017,09,28,10,51,8.20
2017,09,28,10,52,11.40
2017,09,28,10,53,9.90
2017,09,28,10,54,9.90
2017,09,28,10,55,11.90
2017,09,28,10,56,9.20
2017,09,28,10,57,5.40
2017,09,28,10,58,13.30
2017,09,28,10,59,10.10
2017,09,28,11,00,4.20
2017,09,28,11,01,3.50
2017,09,28,11,02,1.60
2017,09,28,11,03,4.40
2017,09,28,11,04,6.60
2017,09,28,11,05,6.80
2017,09,28,11,06,1.60
2017,09,28,11,07,1.30
2017,09,28,11,08,4.10
2017,09,28,11,09,2.80
2017,09,28,11,10,2.20
2017,09,28,11,11,6.40
2017,09,28,11,12,11.50
2017,09,28,11,13,10.60
2017,09,28,11,14,8.70
2017,09,28,11,15,4.40
2017,09,28,11,16,2.80
2017,09,28,11,17,3.60
2017,09,28,11,18,6.80
2017,09,28,11,19,10.10
2017,09,28,11,20,5.20
2017,09,28,11,21,2.50
2017,09,28,11,22,10.30
2017,09,28,11,23,6.70
2017,09,28,11,24,4.90
2017,09,28,11,25,5.60
2017,09,28,11,26,6.50
2017,09,28,11,27,7.00
2017,09,28,11,28,6.70
2017,09,28,11,29,5.60
2017,09,28,11,30,4.90
2017,09,28,11,31,3.80
2017,09,28,11,32,3.20
2017,09,28,11,33,8.60
2017,09,28,11,34,11.40
2017,09,28,11,35,9.20
2017,09,28,11,36,6.80
2017,09,28,11,37,8.80
2017,09,28,11,38,6.80
2017,09,28,11,39,2.90
2017,09,28,11,40,4.50
2017,09,28,11,41,5.90
2017,09,28,11,42,7.30
2017,09,28,11,43,6.70
2017,09,28,11,44,6.70
2017,09,28,11,45,14.80
2017,09,28,11,46,12.10
2017,09,28,11,47,10.10
2017,09,28,11,48,11.80
2017,09,28,11,49,12.00
2017,09,28,11,50,13.00
2017,09,28,11,51,6.50
2017,09,28,11,52,7.60
2017,09,28,11,53,5.20
2017,09,28,11,54,10.50
2017,09,28,11,55,6.40
2017,09,28,11,56,7.30
2017,09,28,11,57,11.30
2017,09,28,11,58,10.20
2017,09,28,11,59,7.30
2017,09,28,12,00,12.20
2017,09,28,12,01,9.30
2017,09,28,12,02,10.60
2017,09,28,12,03,11.90
2017,09,28,12,04,8.80
2017,09,28,12,05,4.40
2017,09,28,12,06,8.20
2017,09,28,12,07,6.50
2017,09,28,12,08,10.80
2017,09,28,12,09,7.60
2017,09,28,12,10,8.50
2017,09,28,12,11,8.10
2017,09,28,12,12,7.80
2017,09,28,12,13,7.50
2017,09,28,12,14,4.10
2017,09,28,12,15,6.10
2017,09,28,12,16,12.80
2017,09,28,12,17,6.70
2017,09,28,12,18,10.90
2017,09,28,12,19,7.00
2017,09,28,12,20,3.80
2017,09,28,12,21,1.70
2017,09,28,12,22,4.20
2017,09,28,12,23,12.70
2017,09,28,12,24,8.40
2017,09,28,12,25,5.50
2017,09,28,12,26,6.80
2017,09,28,12,27,7.10
2017,09,28,12,28,6.60
2017,09,28,12,29,5.70
2017,09,28,12,30,9.50
2017,09,28,12,31,12.70
2017,09,28,12,32,9.90
2017,09,28,12,33,9.30
2017,09,28,12,34,8.70
2017,09,28,12,35,11.40
2017,09,28,12,36,9.60
2017,09,28,12,37,9.40
2017,09,28,12,38,10.30
2017,09,28,12,39,4.50
2017,09,28,12,40,9.20
2017,09,28,12,41,4.00
2017,09,28,12,42,6.20
2017,09,28,12,43,11.00
2017,09,28,12,44,8.30
2017,09,28,12,45,13.10
2017,09,28,12,46,6.50
2017,09,28,12,47,6.80
2017,09,28,12,48,10.20
2017,09,28,12,49,6.80
2017,09,28,12,50,10.50
2017,09,28,12,51,8.80
2017,09,28,12,52,7.40
2017,09,28,12,53,10.20
2017,09,28,12,54,8.70
2017,09,28,12,55,6.20
2017,09,28,12,56,11.20
2017,09,28,12,57,8.40
2017,09,28,12,58,2.60
2017,09,28,12,59,9.30
2017,09,28,13,00,8.00
2017,09,28,13,01,13.70
2017,09,28,13,02,10.90
2017,09,28,13,03,9.90
2017,09,28,13,04,9.20
2017,09,28,13,05,8.90
2017,09,28,13,06,7.50
2017,09,28,13,07,4.80
2017,09,28,13,08,2.30
2017,09,28,13,09,6.00
2017,09,28,13,10,7.90
2017,09,28,13,11,9.00
2017,09,28,13,12,4.90
2017,09,28,13,13,3.90
2017,09,28,13,14,4.10
2017,09,28,13,15,4.70
2017,09,28,13,16,3.10
2017,09,28,13,17,5.10
2017,09,28,13,18,7.20
2017,09,28,13,19,5.40
2017,09,28,13,20,6.60
2017,09,28,13,21,9.20
2017,09,28,13,22,7.00
2017,09,28,13,23,5.40
2017,09,28,13,24,7.20
2017,09,28,13,25,7.50
2017,09,28,13,26,8.60
2017,09,28,13,27,5.80
2017,09,28,13,28,8.50
2017,09,28,13,29,5.10
2017,09,28,13,30,12.90
2017,09,28,13,31,9.20
2017,09,28,13,32,9.60
2017,09,28,13,33,11.30
2017,09,28,13,34,6.60
2017,09,28,13,35,10.20
2017,09,28,13,36,10.40
2017,09,28,13,37,11.70
2017,09,28,13,38,8.90
2017,09,28,13,39,8.10
2017,09,28,13,40,9.30
2017,09,28,13,41,8.80
2017,09,28,13,42,8.10
2017,09,28,13,43,9.20
2017,09,28,13,44,9.30
2017,09,28,13,45,9.60
2017,09,28,13,46,6.90
2017,09,28,13,47,5.30
2017,09,28,13,48,5.20
2017,09,28,13,49,7.30
2017,09,28,13,50,6.60
2017,09,28,13,51,6.80
2017,09,28,13,52,4.40
2017,09,28,13,53,8.40
2017,09,28,13,54,7.90
2017,09,28,13,55,3.80
2017,09,28,13,56,7.00
2017,09,28,13,57,8.00
2017,09,28,13,58,5.50
2017,09,28,13,59,7.40
2017,09,28,14,00,11.00
2017,09,28,14,01,9.70
2017,09,28,14,02,12.20
2017,09,28,14,03,8.80
2017,09,28,14,04,7.90
2017,09,28,14,05,7.00
2017,09,28,14,06,4.40
2017,09,28,14,07,5.80
2017,09,28,14,08,5.40
2017,09,28,14,09,5.10
2017,09,28,14,10,6.90
2017,09,28,14,11,9.90
2017,09,28,14,12,9.50
2017,09,28,14,13,11.30
2017,09,28,14,14,9.90
2017,09,28,14,15,8.30
2017,09,28,14,16,7.50
2017,09,28,14,17,8.50
2017,09,28,14,18,7.60
2017,09,28,14,19,4.50
2017,09,28,14,20,8.90
2017,09,28,14,21,7.20
2017,09,28,14,22,9.30
2017,09,28,14,23,7.10
2017,09,28,14,24,7.80
2017,09,28,14,25,8.70
2017,09,28,14,26,9.90
2017,09,28,14,27,8.40
2017,09,28,14,28,7.20
2017,09,28,14,29,8.90
2017,09,28,14,30,7.50
2017,09,28,14,31,7.30
2017,09,28,14,32,8.90
2017,09,28,14,33,4.10
2017,09,28,14,34,7.50
2017,09,28,14,35,9.40
2017,09,28,14,36,6.60
2017,09,28,14,37,8.00
2017,09,28,14,38,6.80
2017,09,28,14,39,7.20
2017,09,28,14,40,10.10
2017,09,28,14,41,7.80
2017,09,28,14,42,7.60
2017,09,28,14,43,8.50
2017,09,28,14,44,7.50
2017,09,28,14,45,8.20
2017,09,28,14,46,5.90
2017,09,28,14,47,11.80
2017,09,28,14,48,10.80
2017,09,28,14,49,7.30
2017,09,28,14,50,8.00
2017,09,28,14,51,3.90
2017,09,28,14,52,7.50
2017,09,28,14,53,4.70
2017,09,28,14,54,5.30
2017,09,28,14,55,4.90
2017,09,28,14,56,3.90
2017,09,28,14,57,6.20
2017,09,28,14,58,7.30
2017,09,28,14,59,6.60
2017,09,28,15,00,5.90
2017,09,28,15,01,7.50
2017,09,28,15,02,7.40
2017,09,28,15,03,7.00
2017,09,28,15,04,5.80
2017,09,28,15,05,8.70
2017,09,28,15,06,6.20
2017,09,28,15,07,9.20
2017,09,28,15,08,9.40
2017,09,28,15,09,6.40
2017,09,28,15,10,7.60
2017,09,28,15,11,10.20
2017,09,28,15,12,8.70
2017,09,28,15,13,9.00
2017,09,28,15,14,4.20
2017,09,28,15,15,4.20
2017,09,28,15,16,4.70
2017,09,28,15,17,7.50
2017,09,28,15,18,6.50
2017,09,28,15,19,6.60
2017,09,28,15,20,3.50
2017,09,28,15,21,6.20
2017,09,28,15,22,5.50
2017,09,28,15,23,7.30
2017,09,28,15,24,8.00
2017,09,28,15,25,9.70
2017,09,28,15,26,6.10
2017,09,28,15,27,5.50
2017,09,28,15,28,4.80
2017,09,28,15,29,3.90
2017,09,28,15,30,1.80
2017,09,28,15,31,4.10
2017,09,28,15,32,1.90
2017,09,28,15,33,3.50
2017,09,28,15,34,5.20
2017,09,28,15,35,6.90
2017,09,28,15,36,5.20
2017,09,28,15,37,3.90
2017,09,28,15,38,1.90
2017,09,28,15,39,4.40
2017,09,28,15,40,5.80
2017,09,28,15,41,6.60
2017,09,28,15,42,5.50
2017,09,28,15,43,3.30
2017,09,28,15,44,4.70
2017,09,28,15,45,4.30
2017,09,28,15,46,5.00
2017,09,28,15,47,4.10
2017,09,28,15,48,7.10
2017,09,28,15,49,7.80
2017,09,28,15,50,6.20
2017,09,28,15,51,3.40
2017,09,28,15,52,2.20
2017,09,28,15,53,3.80
2017,09,28,15,54,5.50
2017,09,28,15,55,6.20
2017,09,28,15,56,5.30
2017,09,28,15,57,8.90
2017,09,28,15,58,6.20
2017,09,28,15,59,3.30
2017,09,28,16,00,8.50
2017,09,28,16,01,7.50
2017,09,28,16,02,3.90
2017,09,28,16,03,5.10
2017,09,28,16,04,3.40
2017,09,28,16,05,8.10
2017,09,28,16,06,9.30
2017,09,28,16,07,7.50
2017,09,28,16,08,6.00
2017,09,28,16,09,6.40
2017,09,28,16,10,4.80
2017,09,28,16,11,3.90
2017,09,28,16,12,7.80
2017,09,28,16,13,4.80
2017,09,28,16,14,7.50
2017,09,28,16,15,6.20
2017,09,28,16,16,4.50
2017,09,28,16,17,4.10
2017,09,28,16,18,2.70
2017,09,28,16,19,3.20
2017,09,28,16,20,5.10
2017,09,28,16,21,3.20
2017,09,28,16,22,2.60
2017,09,28,16,23,3.80
2017,09,28,16,24,4.60
2017,09,28,16,25,8.50
2017,09,28,16,26,6.80
2017,09,28,16,27,6.40
2017,09,28,16,28,6.40
2017,09,28,16,29,5.40
2017,09,28,16,30,6.40
2017,09,28,16,31,4.60
2017,09,28,16,32,7.00
2017,09,28,16,33,4.10
2017,09,28,16,34,4.00
2017,09,28,16,35,4.50
2017,09,28,16,36,5.40
2017,09,28,16,37,5.50
2017,09,28,16,38,5.40
2017,09,28,16,39,3.10
2017,09,28,16,40,1.00
2017,09,28,16,41,0.80
2017,09,28,16,42,0.80
2017,09,28,16,43,1.80
2017,09,28,16,44,1.20
2017,09,28,16,45,0.30
2017,09,28,16,46,1.10
2017,09,28,16,47,0.50
2017,09,28,16,48,0.40
2017,09,28,16,49,0.50
2017,09,28,16,50,0.60
2017,09,28,16,51,0.20
2017,09,28,16,52,0.50
2017,09,28,16,53,0.80
2017,09,28,16,54,3.10
2017,09,28,16,55,3.50
2017,09,28,16,56,3.80
2017,09,28,16,57,2.60
2017,09,28,16,58,1.10
2017,09,28,16,59,0.70
2017,09,28,17,00,0.40
2017,09,28,17,01,0.80
2017,09,28,17,02,1.00
2017,09,28,17,03,2.40
2017,09,28,17,04,5.30
2017,09,28,17,05,3.80
2017,09,28,17,06,2.30
2017,09,28,17,07,3.30
2017,09,28,17,08,2.80
2017,09,28,17,09,2.60
2017,09,28,17,10,1.90
2017,09,28,17,11,2.50
2017,09,28,17,12,3.20
2017,09,28,17,13,3.30
2017,09,28,17,14,2.50
2017,09,28,17,15,1.90
2017,09,28,17,16,1.60
2017,09,28,17,17,2.20
2017,09,28,17,18,1.50
2017,09,28,17,19,2.30
2017,09,28,17,20,0.70
2017,09,28,17,21,0.80
2017,09,28,17,22,1.60
2017,09,28,17,23,2.70
2017,09,28,17,24,2.10
2017,09,28,17,25,0.90
2017,09,28,17,26,1.10
2017,09,28,17,27,4.60
2017,09,28,17,28,4.70
2017,09,28,17,29,4.50
2017,09,28,17,30,4.70
2017,09,28,17,31,3.40
2017,09,28,17,32,3.40
2017,09,28,17,33,1.70
2017,09,28,17,34,0.80
2017,09,28,17,35,2.40
2017,09,28,17,36,3.30
2017,09,28,17,37,1.30
2017,09,28,17,38,1.00
2017,09,28,17,39,0.90
2017,09,28,17,40,1.20
2017,09,28,17,41,3.40
2017,09,28,17,42,1.60
2017,09,28,17,43,1.10
2017,09,28,17,44,0.30
2017,09,28,17,45,0.00
2017,09,28,17,46,0.10
2017,09,28,17,47,0.80
2017,09,28,17,48,1.10
2017,09,28,17,49,0.90
2017,09,28,17,50,0.60
2017,09,28,17,51,1.80
2017,09,28,17,52,1.00
2017,09,28,17,53,1.00
2017,09,28,17,54,1.40
2017,09,28,17,55,2.20
2017,09,28,17,56,1.60
2017,09,28,17,57,1.20
2017,09,28,17,58,0.40
2017,09,28,17,59,0.70
2017,09,28,18,00,0.00
2017,09,28,18,01,0.20
2017,09,28,18,02,0.00
2017,09,28,18,03,0.00